Dewpoint
56 56 55 55 55 54 54 54 53 52 51 53 53 56 51 40 40 43 44 45 42 41 38 44 38 32 28 27 25 25 25 22 25 24 24 22 24 24 24 25 25 24 26 22 16 14 16 19 17 20 22 24 25 26 24 25 26 24 24 26 30 37 24 25 24 28 25 27 27 31 31 27 22 31 30 29 27 24 23 24 23 21 21 22 28 38 45
56 56 55 55 54 54 54 54 53 52 51 53 54 53 47 40 39 40 41 43 43 40 36 35 32 31 29 26 25 26 25 25 24 23 24 24 25 26 26 24 25 26 26 25 25 21 23 21 23 21 24 24 25 25 24 21 24 25 34 36 29 24 38 35 32 30 29 34 31 30 31 29 24 18 28 31 29 27 26 23 26 25 30 28 27 35 46
56 56 55 55 54 54 54 54 53 52 51 52 54 49 47 46 45 41 41 43 41 37 37 35 33 30 28 27 27 26 25 26 25 23 24 23 25 25 26 26 26 25 26 26 26 25 24 27 23 24 21 25 25 25 25 25 30 33 36 59 30 26 27 35 29 28 27 26 27 29 31 28 25 20 28 32 30 31 27 25 26 22 39 37 41 40 48
57 56 55 55 54 54 54 54 53 52 51 51 54 54 49 43 40 36 40 40 38 37 39 36 38 36 31 29 27 25 24 26 26 25 24 24 24 23 24 23 24 26 27 27 27 27 26 25 28 22 22 24 24 25 25 27 30 45 54 47 32 29 29 32 34 33 30 32 33 27 28 22 17 19 21 24 29 32 28 28 30 34 36 38 45 40 45
57 56 56 55 54 54 54 54 53 52 51 51 54 56 51 41 37 32 36 35 33 33 35 34 33 31 29 32 28 27 26 26 25 27 24 25 24 24 24 22 23 26 25 27 27 28 27 27 29 26 27 26 25 25 25 27 39 61 48 39 29 36 29 28 33 33 33 30 27 23 26 21 22 24 24 25 28 32 30 34 33 38 28 27 43 42 34
57 57 57 56 55 55 54 53 52 51 51 51 55 54 47 41 42 41 39 34 35 32 32 31 31 30 29 33 29 28 27 28 29 28 27 25 25 22 27 23 22 22 24 28 28 30 30 31 29 28 27 28 26 25 26 26 41 49 30 31 31 30 28 24 24 23 26 29 27 26 24 24 27 25 27 27 27 34 32 35 34 34 31 30 38 41 41
58 58 57 57 56 56 56 54 52 51 50 51 57 44 46 47 46 44 46 44 37 35 34 32 30 32 29 34 32 30 29 29 30 29 28 28 27 24 26 25 22 22 24 26 25 33 32 31 32 32 32 29 30 27 27 26 26 28 28 28 41 35 26 22 20 25 26 27 28 27 25 28 27 28 30 29 28 31 31 30 35 32 38 37 36 39 45
58 58 58 57 57 56 56 54 53 52 50 53 48 45 44 46 46 46 46 46 40 39 34 33 33 31 38 36 32 31 31 30 30 29 29 30 27 25 24 23 23 23 25 30 32 35 35 36 35 33 34 31 31 28 29 26 25 22 22 24 35 28 27 33 22 25 23 23 29 29 29 29 25 24 28 32 31 24 33 33 35 36 36 34 31 31 43
58 58 58 57 56 56 56 55 54 52 51 53 53 46 47 46 51 53 48 48 43 38 35 32 33 31 35 34 35 33 30 30 30 29 29 28 27 26 25 24 25 27 27 30 34 33 33 33 33 31 29 28 28 29 29 29 30 28 26 26 26 25 23 29 29 25 23 22 29 31 29 29 26 26 33 34 34 30 30 29 34 37 37 36 36 38 43
58 58 58 57 56 56 56 55 54 53 51 54 55 49 52 49 50 51 52 49 51 36 33 33 30 30 32 31 32 33 31 30 30 32 31 31 28 27 25 27 21 27 30 35 35 32 30 30 29 30 28 24 22 22 23 24 26 25 26 29 23 27 25 27 26 25 26 31 31 29 29 29 25 33 34 33 35 36 34 33 36 38 40 37 39 38 39
58 58 58 57 57 56 55 55 54 53 53 53 55 55 53 50 50 53 55 51 44 33 30 30 30 34 31 31 32 30 29 30 29 29 37 31 29 30 31 32 26 29 38 36 33 32 27 27 25 20 19 19 19 20 21 20 19 18 20 24 25 30 26 25 29 29 27 27 27 31 30 25 34 39 39 39 37 37 35 34 33 33 38 38 39 39 40
58 58 58 57 57 56 56 55 54 54 53 55 56 56 55 53 52 56 54 52 42 39 31 29 29 31 30 31 31 30 30 29 29 30 34 33 32 31 32 35 32 41 37 36 31 28 25 22 21 25 20 23 23 21 21 25 23 28 19 21 27 30 29 26 34 30 26 33 33 32 30 29 41 41 41 39 38 36 35 32 29 34 42 42 39 38 40
59 58 58 58 57 56 56 55 54 54 53 54 55 56 57 56 53 53 53 53 51 41 33 28 31 31 29 30 30 29 29 31 31 32 32 34 34 32 33 33 34 32 33 32 28 28 29 30 30 31 25 24 24 26 26 27 26 24 23 23 29 31 31 35 33 30 28 26 27 26 34 43 42 43 42 41 39 35 33 30 37 39 36 39 40 40 39
59 58 58 58 57 57 56 55 55 55 54 53 54 56 57 57 54 55 55 55 52 40 37 34 33 32 31 29 29 29 32 34 35 33 33 30 33 34 33 33 31 31 33 31 33 36 35 32 30 28 27 25 28 25 23 29 28 29 28 31 27 31 35 33 29 34 28 28 28 28 44 41 40 39 39 39 39 37 36 31 32 40 39 39 42 42 42
59 59 58 58 58 57 56 56 55 55 54 52 54 55 59 59 57 58 58 58 54 50 38 38 38 36 33 33 32 32 31 32 32 33 35 33 28 34 33 32 31 32 30 36 36 35 37 36 33 30 32 28 27 31 29 29 29 30 31 31 35 40 32 39 35 32 34 32 29 30 35 32 42 42 39 39 38 37 33 34 31 44 43 43 44 44 45
59 59 58 58 58 57 57 56 55 55 54 53 54 56 59 61 60 59 57 57 58 47 39 37 37 36 36 36 35 34 33 35 38 36 35 35 35 35 33 33 33 32 33 34 42 42 38 35 34 35 33 34 33 35 36 30 31 30 30 31 29 31 33 37 31 30 28 28 26 28 33 44 45 43 41 40 39 34 30 30 36 45 45 45 44 43 45
59 59 58 58 58 57 57 56 55 54 54 52 53 55 59 60 60 58 58 58 59 45 38 37 36 36 34 39 35 34 36 34 42 36 35 38 37 36 35 36 35 34 36 34 39 36 37 38 36 39 40 39 38 36 39 36 31 30 32 32 29 31 32 35 31 30 27 25 22 26 44 43 42 40 40 40 37 34 35 26 37 47 46 45 44 44 44
58 58 58 58 58 58 57 56 55 54 53 52 54 56 59 60 60 61 57 57 56 48 40 38 36 36 36 39 38 37 37 36 35 36 32 40 38 35 35 34 35 33 33 34 43 36 36 37 35 32 31 38 40 40 32 35 32 35 37 35 32 36 36 32 26 23 29 34 25 39 43 45 42 41 41 39 34 31 26 28 45 48 47 46 46 44 44
58 58 58 58 58 58 57 57 56 55 54 52 55 57 58 59 59 59 58 55 53 47 38 38 38 38 37 39 40 36 36 34 35 34 37 34 40 40 36 36 32 34 33 32 37 37 36 38 35 35 35 42 40 38 41 36 36 42 41 39 36 33 30 29 28 21 18 20 24 44 44 46 44 42 40 44 40 35 42 47 49 48 46 46 45 46 46
58 58 58 58 58 58 57 57 56 56 55 53 54 56 57 60 56 58 55 54 54 56 41 38 37 36 36 37 39 41 42 39 40 35 38 38 46 39 38 34 34 32 38 39 34 36 36 35 34 37 34 31 42 41 36 41 44 41 41 42 34 32 35 30 33 37 32 34 27 25 36 45 42 41 41 48 44 46 49 46 46 48 47 47 47 46 47
57 57 58 58 58 58 57 57 56 56 55 54 54 57 58 58 58 57 56 58 57 56 42 38 36 36 34 34 35 36 39 39 41 42 43 43 46 43 33 44 38 35 39 42 35 35 39 34 36 38 35 37 43 43 33 43 41 43 39 37 34 40 34 30 35 40 34 32 40 41 44 45 43 45 45 47 47 47 48 46 45 47 47 48 47 48 49
57 57 57 58 58 58 57 57 57 56 56 55 54 57 56 57 59 55 55 59 58 57 48 40 37 36 36 34 35 36 36 37 39 41 43 45 52 39 39 42 43 41 43 43 40 40 37 35 37 38 30 32 41 30 41 32 32 42 42 34 27 46 44 47 42 42 42 44 45 46 46 44 42 43 47 48 47 46 46 46 46 47 47 49 47 48 48
57 57 57 57 58 58 57 57 57 56 56 55 55 56 55 57 57 58 58 57 58 55 54 46 41 42 39 37 36 35 35 36 39 41 43 45 46 43 35 40 39 40 41 46 44 45 45 37 36 39 35 32 41 38 39 33 35 42 40 33 43 45 42 47 43 41 42 43 42 44 46 45 43 46 47 47 44 46 43 45 45 48 48 49 48 49 48
56 56 56 57 57 57 57 57 57 56 55 55 55 55 56 57 58 57 56 56 55 52 51 48 39 40 38 35 34 34 37 38 36 41 41 47 45 42 38 41 40 42 46 49 47 40 42 37 37 37 36 44 45 33 27 30 32 41 38 37 38 41 39 32 31 44 36 36 44 41 41 46 46 44 46 47 49 49 47 47 48 48 48 47 48 49 48
55 56 56 56 57 57 57 57 57 56 55 55 55 55 57 59 59 56 54 53 53 52 50 45 37 37 37 35 32 35 33 33 38 38 38 41 46 40 41 42 39 43 46 44 48 34 39 33 35 33 27 47 38 28 40 39 43 43 35 40 41 42 39 33 38 39 36 45 46 43 39 44 46 44 44 46 48 49 50 49 48 48 48 47 48 48 46
55 55 56 56 57 57 57 57 57 56 55 55 55 55 56 58 60 59 56 55 53 52 50 47 38 38 35 34 35 34 29 32 34 35 34 37 37 37 40 44 42 37 41 28 33 37 41 41 40 40 36 44 42 39 42 44 41 40 43 42 43 42 45 39 40 37 40 43 43 44 42 44 46 47 47 47 48 48 49 49 49 48 46 47 48 48 47
55 55 55 56 57 57 57 57 57 56 55 55 54 56 58 59 60 55 52 52 53 51 46 46 38 35 35 36 33 36 33 34 31 33 33 32 35 36 39 40 44 43 39 38 34 35 37 39 36 36 36 38 32 41 40 40 38 37 36 42 41 34 38 40 36 36 44 46 48 49 44 41 46 44 44 45 47 47 48 48 48 46 48 48 47 48 48
55 55 56 56 57 57 57 57 57 56 55 55 55 57 60 61 61 57 54 54 53 49 47 45 46 44 37 35 35 36 33 33 32 30 32 32 31 36 38 40 44 40 39 38 41 33 32 29 28 40 35 40 34 35 37 42 39 37 38 41 43 46 49 46 44 42 43 49 49 51 50 47 48 47 46 47 45 46 47 47 46 46 49 49 50 48 49
54 55 56 56 56 57 57 57 57 56 55 54 56 58 60 62 59 55 50 51 56 52 52 51 50 48 39 36 37 36 33 35 35 33 33 33 36 35 38 40 42 38 35 32 38 45 43 42 43 42 43 48 44 42 38 33 35 37 42 44 43 44 45 48 46 44 46 47 48 49 48 47 47 46 46 45 48 47 46 46 47 48 49 49 49 49 49
54 54 55 56 56 57 57 57 57 56 55 56 57 58 57 58 58 55 52 51 55 56 52 49 47 47 42 38 37 37 34 37 34 35 37 36 38 40 40 39 41 37 38 40 38 40 40 40 38 38 35 48 44 43 32 34 39 45 46 46 44 44 42 44 46 47 48 49 50 50 48 45 46 47 45 46 49 49 47 47 47 49 49 49 48 49 49
53 54 55 56 56 56 57 57 56 56 55 56 56 55 53 51 57 53 54 53 57 54 52 50 46 44 45 39 37 37 36 36 39 37 37 35 37 38 36 43 41 39 41 38 37 39 40 39 40 41 36 42 44 44 41 40 41 45 47 48 46 48 49 49 49 48 48 49 48 48 47 47 48 47 44 46 48 47 48 48 51 52 51 48 47 49 48
53 54 55 56 56 57 57 57 56 56 56 56 53 54 56 56 58 57 56 55 56 55 53 51 48 45 43 39 38 39 37 36 37 35 36 35 38 36 39 36 41 36 46 44 43 42 42 43 39 41 42 47 45 43 41 38 47 47 49 50 51 51 51 52 51 50 49 49 47 45 45 45 49 48 48 50 49 48 48 50 49 49 52 49 46 45 47
53 54 55 56 56 56 57 57 56 56 54 55 55 55 54 54 54 54 55 56 55 54 53 51 48 48 45 42 38 35 36 36 36 37 39 37 38 35 38 34 37 34 55 48 42 43 39 37 42 39 47 50 43 43 41 43 45 45 46 48 49 51 52 51 51 51 50 48 48 47 47 48 49 50 51 51 50 49 51 49 46 47 46 46 45 46 46
54 54 55 56 56 56 56 56 55 55 55 56 54 53 53 55 55 55 56 57 54 53 52 50 47 45 44 38 37 37 34 36 42 38 42 44 42 37 41 38 40 40 36 35 43 42 37 36 39 46 47 43 42 41 39 47 48 46 47 50 51 51 52 50 51 51 52 51 50 48 49 50 50 51 50 50 51 51 50 49 47 47 46 47 47 47 49
54 54 55 56 56 56 56 55 56 54 52 51 52 57 54 55 55 56 54 55 53 53 49 47 46 46 44 41 38 39 36 35 42 42 39 46 42 41 40 36 37 36 43 38 40 39 41 41 43 42 38 41 42 38 40 49 49 50 50 49 50 50 50 49 49 50 51 51 50 50 50 49 49 48 48 49 48 49 47 47 48 48 47 49 48 48 50
54 55 55 56 55 55 56 55 55 52 50 49 54 59 57 58 54 58 58 59 56 56 54 47 42 39 43 45 39 41 37 33 43 44 44 43 39 39 38 35 38 40 47 38 38 39 37 45 39 35 43 37 41 44 50 52 51 51 50 50 51 51 51 51 50 49 50 50 51 50 48 47 46 48 49 48 47 48 47 47 48 49 49 49 50 52 53
54 55 55 55 55 56 53 50 55 52 51 55 56 59 58 58 55 58 59 59 58 58 53 50 49 43 42 43 44 44 36 36 42 40 42 38 40 45 40 40 35 46 42 41 36 36 43 44 38 39 43 37 51 54 54 54 53 52 52 53 53 52 53 53 52 50 49 48 48 49 48 47 47 50 49 48 47 45 46 47 48 49 49 49 49 51 53
54 54 53 52 52 50 47 50 52 57 58 57 59 55 55 54 48 54 55 53 54 53 47 45 45 48 48 45 43 44 40 39 40 38 41 40 40 41 41 41 42 42 37 35 40 48 49 46 43 37 46 54 56 56 55 56 55 55 54 53 53 52 53 52 51 50 50 49 48 50 49 48 48 49 48 47 47 45 48 48 51 50 51 51 51 53 53
53 53 53 54 52 47 49 59 59 57 56 53 52 49 50 53 51 49 50 50 54 50 47 41 39 42 44 44 44 46 40 42 39 40 39 44 41 41 42 35 42 39 36 34 46 45 38 41 41 39 36 54 54 55 56 56 55 54 54 54 53 54 53 52 51 51 50 51 51 51 51 50 50 50 49 48 46 46 47 49 50 51 52 53 53 54 54
52 52 52 50 47 47 56 56 55 53 52 50 52 49 48 50 47 45 47 46 46 47 43 39 38 42 41 43 42 41 42 39 40 37 39 43 41 39 43 41 44 39 35 32 41 43 38 36 39 39 39 53 55 56 56 54 54 54 53 54 53 54 51 52 50 50 50 51 51 49 49 48 48 48 48 49 48 49 49 50 52 52 53 53 54 55 57
52 52 51 49 57 56 54 56 54 52 50 49 50 50 48 45 47 48 45 46 45 40 41 39 40 39 41 41 42 41 46 42 48 47 44 42 44 42 38 36 44 37 35 33 45 46 40 35 35 36 48 54 55 56 55 54 54 53 54 55 54 52 52 50 50 49 49 50 50 50 51 49 50 50 49 50 51 51 52 52 53 54 54 54 56 56 56
54 53 53 54 54 55 55 54 51 49 49 49 46 42 43 43 43 43 44 41 39 41 40 42 43 43 42 41 41 42 46 44 47 44 42 40 40 37 36 38 41 36 33 41 44 38 37 34 33 37 53 56 56 56 55 54 54 54 53 53 53 52 49 49 49 49 50 51 51 51 51 51 51 53 54 52 53 53 53 53 54 54 54 57 57 57 58
54 54 55 53 52 51 50 46 47 48 41 42 42 38 41 40 40 40 42 42 41 42 43 41 45 44 41 37 42 44 45 48 44 42 40 41 44 42 38 39 39 33 34 43 38 34 30 31 31 53 55 56 56 56 56 54 54 54 54 53 53 51 51 50 50 50 50 50 50 51 51 51 52 52 53 54 51 51 54 55 57 57 58 58 59 59 60
54 52 51 50 48 49 47 37 47 44 39 41 39 36 38 37 38 40 40 41 39 42 42 41 42 40 40 39 41 43 41 45 43 43 38 44 42 41 36 36 37 36 38 34 32 30 32 37 49 52 55 55 55 55 55 55 54 54 52 52 52 52 51 49 48 49 49 50 50 50 51 52 52 53 53 54 53 53 55 56 57 57 58 59 60 60 61
50 49 50 47 42 45 44 36 43 40 38 39 40 38 34 31 35 38 38 43 39 40 41 41 43 42 41 42 44 41 41 38 45 40 39 42 37 38 35 34 40 38 33 32 33 31 34 45 51 54 54 55 54 55 55 55 55 54 53 51 50 49 48 48 48 48 50 50 50 49 49 52 53 53 53 54 54 55 56 56 57 58 58 60 59 59 62
50 45 44 40 38 41 38 35 36 36 40 40 39 37 37 37 36 40 40 39 38 42 40 42 41 42 39 40 38 41 40 43 41 40 42 41 39 37 38 41 40 37 33 29 33 32 38 48 50 51 54 54 55 55 55 55 53 53 52 50 48 48 48 48 48 49 50 50 50 51 52 52 52 53 54 55 55 56 56 58 60 59 58 57 57 57 60
51 49 41 40 37 39 43 37 37 38 40 40 38 36 35 39 42 44 44 41 40 39 41 43 43 41 42 40 43 40 42 40 39 42 39 37 37 38 42 39 35 33 31 32 33 32 47 47 51 54 55 55 54 54 54 54 52 52 51 51 50 49 49 48 48 48 50 50 51 51 53 53 53 54 54 55 55 57 58 59 58 58 58 57 60 61 61
44 49 45 36 35 37 38 40 40 38 37 39 37 35 35 42 43 44 43 41 42 40 42 42 42 42 42 43 41 38 39 38 38 42 39 38 39 37 37 36 31 33 33 34 41 45 47 50 52 54 55 54 54 54 53 53 52 52 50 49 49 48 47 47 49 50 49 50 51 52 52 52 53 54 54 54 55 56 58 58 58 58 59 60 61 61 61
52 50 39 39 41 37 36 37 36 33 36 37 37 36 36 39 41 42 42 45 43 43 43 44 42 41 38 40 39 39 39 39 35 37 38 38 38 33 34 33 33 32 33 33 40 42 48 50 53 54 52 52 52 51 51 51 51 50 50 50 49 48 48 49 50 51 50 50 52 52 53 53 55 54 54 54 55 55 57 58 58 59 60 61 62 62 61
48 44 47 42 39 39 38 35 33 32 35 36 36 38 39 38 38 42 45 44 45 47 43 43 43 39 39 38 35 37 38 38 37 38 35 34 33 34 31 31 34 34 33 34 39 46 49 49 51 52 50 50 51 50 49 49 48 52 49 49 49 50 49 48 50 50 51 52 52 51 52 53 53 52 54 53 54 56 57 58 58 59 60 58 60 60 61
48 47 43 42 40 38 35 34 32 31 32 36 37 37 39 39 40 42 45 45 45 44 43 41 40 39 36 38 38 32 37 41 37 36 35 34 35 34 32 31 35 37 37 39 40 42 47 49 47 49 51 50 48 49 48 49 51 50 52 52 53 50 52 48 49 51 49 50 51 51 53 54 54 54 56 57 56 56 55 58 60 59 59 59 62 61 62
41 39 41 41 41 41 42 43 42 42 35 38 37 38 41 40 43 46 47 45 43 42 42 42 39 36 35 35 37 37 41 38 37 38 34 35 38 35 36 39 39 39 39 39 40 40 42 47 52 52 53 51 52 52 54 53 52 52 50 49 48 51 51 48 50 49 48 48 52 51 53 53 53 55 56 55 54 55 56 56 58 59 58 57 62 63 63